Olbia/Costa Smer, Italy

6:42 AM CET on March 25, 2017 (GMT +0100)
Olbia/Costa Smer

Weather History for 16531 - March, 2014

Change the Weather History Date:

Saturday, March 1, 2014

  Actual Average Record
Temperature  
Mean Temperature 48 °F -  
Max Temperature 54 °F 60 °F - ()
Min Temperature 42 °F 42 °F - ()
Degree Days  
Heating Degree Days 17    
Moisture  
Dew Point 40 °F    
Average Humidity 76    
Maximum Humidity 87    
Minimum Humidity 58    
Precipitation  
Precipitation 0.24 in 0.08 in - ()
Sea Level Pressure  
Sea Level Pressure 29.51 in    
Wind  
Wind Speed 13 mph ()    
Max Wind Speed 24 mph    
Max Gust Speed 36 mph    
Visibility 7.4 miles    
Events Rain , Thunderstorm    
T = Trace of Precipitation, MM = Missing Value Source: Averaged Metar Reports

Daily Weather History Graph

Daily Weather History Graph

Search for Another Location

Airport or City:

Trip Planner

Search our weather history database for the weather conditions in past years. The results will help you decide how hot, cold, wet, or windy it might be!

Date:

Astronomy

Mar. 01, 2014 Rise Set
Actual Time 6:56 AM CET 6:12 PM CET
Civil Twilight 6:28 AM CET 6:40 PM CET
Nautical Twilight 5:57 AM CET 7:12 PM CET
Astronomical Twilight 5:25 AM CET 7:43 PM CET
Moon 6:39 AM CET (3/1) 6:41 PM CET (3/1)
Length of Visible Light 12h 11m
Length of Day
11h 16m
New Moon, 0% of the Moon is Illuminated
Mar 1
New Moon
Mar 8
First Quarter
Mar 16
Full
Mar 24
Last Quarter
Mar 30
New

Hourly Weather History & Observations

Time (CET) Temp. Windchill Dew Point Humidity Pressure Visibility Wind Dir Wind Speed Gust Speed Precip Events Conditions
12:20 AM 46.4 °F 42.4 °F 42.8 °F 87% 29.59 in 6.2 mi SW 8.1 mph - N/A Rain Light Rain
12:50 AM 46.4 °F 40.7 °F 42.8 °F 87% 29.59 in 6.2 mi SW 12.7 mph - N/A Rain Light Rain
1:00 AM 47 °F - 42 °F 76% 29.59 in 16 mi SW 13.8 mph - - Rain Light Drizzle
1:20 AM 46.4 °F 40.7 °F 41.0 °F 81% 29.56 in 6.2 mi SW 12.7 mph - N/A   Scattered Clouds
1:50 AM 46.4 °F 40.4 °F 42.8 °F 87% 29.56 in 6.2 mi SW 13.8 mph - N/A   Scattered Clouds
2:20 AM 46.4 °F 39.2 °F 41.0 °F 81% 29.56 in 6.2 mi SW 18.4 mph - N/A   Scattered Clouds
2:50 AM 46.4 °F 39.5 °F 41.0 °F 81% 29.53 in 6.2 mi SW 17.3 mph - N/A   Scattered Clouds
3:20 AM 46.4 °F 38.7 °F 41.0 °F 81% 29.53 in 6.2 mi SW 20.7 mph - N/A   Light Drizzle
3:50 AM 46.4 °F 39.8 °F 39.2 °F 76% 29.53 in 6.2 mi WSW 16.1 mph - N/A Rain Light Rain
4:00 AM 46 °F - 40 °F 74%  in 16 mi WSW 13.8 mph - - Rain Light Rain
4:20 AM 46.4 °F 40.4 °F 41.0 °F 81% 29.53 in 6.2 mi SW 13.8 mph - N/A   Mostly Cloudy
4:50 AM 46.4 °F 39.8 °F 41.0 °F 81% 29.53 in 6.2 mi SW 16.1 mph - N/A   Scattered Clouds
5:20 AM 48.2 °F - 41.0 °F 76% 29.53 in 6.2 mi WSW 17.3 mph - N/A   Light Drizzle
5:50 AM 50.0 °F - 39.2 °F 66% 29.53 in 6.2 mi WSW 18.4 mph - N/A   Scattered Clouds
6:20 AM 48.2 °F - 39.2 °F 71% 29.50 in 6.2 mi WSW 21.9 mph - N/A   Scattered Clouds
6:50 AM 48.2 °F - 41.0 °F 76% 29.50 in 6.2 mi WSW 17.3 mph - N/A   Partly Cloudy
7:00 AM 49 °F - 39 °F 60% 29.50 in 16 mi WSW 17.3 mph - -   Partly Cloudy
7:20 AM 48.2 °F - 39.2 °F 71% 29.50 in 6.2 mi WSW 17.3 mph - N/A   Partly Cloudy
7:50 AM 50.0 °F - 41.0 °F 71% 29.53 in 6.2 mi WSW 13.8 mph - N/A   Partly Cloudy
8:20 AM 48.2 °F - 41.0 °F 76% 29.53 in 6.2 mi SW 16.1 mph - N/A   Partly Cloudy
8:50 AM 50.0 °F - 41.0 °F 71% 29.53 in 6.2 mi WSW 12.7 mph - N/A   Partly Cloudy
9:20 AM 50.0 °F - 41.0 °F 71% 29.53 in 6.2 mi WSW 16.1 mph - N/A   Scattered Clouds
9:50 AM 51.8 °F - 41.0 °F 67% 29.53 in 6.2 mi WSW 21.9 mph 33.4 mph N/A   Scattered Clouds
10:00 AM 50 °F - 40 °F 60%  in 16 mi WSW 21.9 mph - -   Partly Cloudy
10:20 AM 51.8 °F - 41.0 °F 67% 29.53 in 6.2 mi WSW 16.1 mph - N/A   Scattered Clouds
10:50 AM 51.8 °F - 41.0 °F 67% 29.53 in 6.2 mi WSW 19.6 mph - N/A   Scattered Clouds
11:20 AM 53.6 °F - 39.2 °F 58% 29.53 in 6.2 mi WSW 24.2 mph - N/A   Scattered Clouds
11:50 AM 53.6 °F - 39.2 °F 58% 29.53 in 6.2 mi West 20.7 mph 35.7 mph N/A   Scattered Clouds
12:20 PM 51.8 °F - 39.2 °F 62% 29.53 in 6.2 mi WSW 17.3 mph - N/A   Scattered Clouds
12:50 PM 50.0 °F - 39.2 °F 66% 29.53 in 6.2 mi West 21.9 mph - N/A Rain Light Rain
1:00 PM 47 °F - 40 °F 68%  in 16 mi WSW 21.9 mph - - Rain Light Rain
1:20 PM 50.0 °F - 42.8 °F 76% 29.50 in 6.2 mi WSW 18.4 mph - N/A Rain Light Rain
1:50 PM 46.4 °F 39.8 °F 41.0 °F 81% 29.50 in 6.2 mi WSW 16.1 mph - N/A Rain Light Rain
2:20 PM 48.2 °F - 41.0 °F 76% 29.50 in 6.2 mi SW 13.8 mph - N/A   Mostly Cloudy
2:50 PM 48.2 °F - 41.0 °F 76% 29.50 in 6.2 mi SW 13.8 mph - N/A   Mostly Cloudy
3:20 PM 48.2 °F - 41.0 °F 76% 29.50 in 6.2 mi SW 12.7 mph - N/A   Mostly Cloudy
3:50 PM 46.4 °F 40.1 °F 41.0 °F 81% 29.50 in 6.2 mi SW 15.0 mph - N/A   Mostly Cloudy
4:00 PM 46 °F - 40 °F 74% 29.50 in 16 mi SW 12.7 mph - - Rain Light Rain
4:20 PM 48.2 °F - 41.0 °F 76% 29.47 in 6.2 mi SW 10.4 mph - N/A   Scattered Clouds
4:50 PM 46.4 °F 38.7 °F 39.2 °F 76% 29.47 in 6.2 mi SW 20.7 mph 33.4 mph N/A Rain Light Rain
5:20 PM 46.4 °F 39.5 °F 41.0 °F 81% 29.47 in 6.2 mi SW 17.3 mph - N/A   Light Drizzle
5:50 PM 46.4 °F 39.5 °F 39.2 °F 76% 29.50 in 6.2 mi SW 17.3 mph - N/A Rain Rain
6:20 PM 44.6 °F 38.1 °F 41.0 °F 87% 29.50 in 3.1 mi WSW 13.8 mph - N/A Rain Rain
6:50 PM 42.8 °F 36.2 °F 39.2 °F 87% 29.50 in 3.1 mi WSW 12.7 mph - N/A Rain , Thunderstorm Thunderstorms and Rain
7:00 PM 43 °F - 40 °F 84% 29.50 in 16 mi West 10.4 mph - - Rain , Thunderstorm Thunderstorms and Rain
7:20 PM 42.8 °F 35.8 °F 39.2 °F 87% 29.50 in 3.1 mi West 13.8 mph - N/A Rain , Thunderstorm Thunderstorms and Rain
7:50 PM 44.6 °F 41.4 °F 39.2 °F 81% 29.47 in 5.6 mi West 5.8 mph - N/A Rain , Thunderstorm Light Thunderstorms and Rain
8:20 PM 44.6 °F 42.2 °F 41.0 °F 87% 29.47 in 6.2 mi West 4.6 mph - N/A Thunderstorm Light Thunderstorm
8:50 PM 46.4 °F 42.4 °F 39.2 °F 76% 29.47 in 6.2 mi West 8.1 mph - N/A   Light Drizzle
9:20 PM 46.4 °F 42.9 °F 41.0 °F 81% 29.47 in 6.2 mi NNW 6.9 mph - N/A   Scattered Clouds
9:50 PM 44.6 °F 42.2 °F 41.0 °F 87% 29.47 in 6.2 mi South 4.6 mph - N/A   Scattered Clouds
10:00 PM 45 °F - 40 °F 76% 29.47 in 16 mi SW 5.8 mph - - Rain , Thunderstorm Thunderstorms and Rain
10:20 PM 44.6 °F 42.2 °F 39.2 °F 81% 29.47 in 6.2 mi SW 4.6 mph - N/A   Scattered Clouds
10:50 PM 46.4 °F 42.4 °F 39.2 °F 76% 29.44 in 6.2 mi WSW 8.1 mph - N/A   Scattered Clouds
11:20 PM 46.4 °F 41.9 °F 37.4 °F 71% 29.44 in 6.2 mi WSW 9.2 mph - N/A   Scattered Clouds
11:50 PM 44.6 °F 39.7 °F 37.4 °F 76% 29.44 in 6.2 mi SW 9.2 mph - N/A   Scattered Clouds